Погода в Белоносово

Россия / Челябинская область     54°48′42″N   61°26′41″E
темп.,
°C
ветер,
м/с
пор.,
м/с
влажн.,
%
обл.,
%
осадки,
мм/ч
давл.,
гПа
погр.,
м
21 апреля, ср
ср2123:00+3сз49560 0.0 1031170
02:00+2сз48620 0.0 1032136
05:00+1сз35660 0.0 103280
08:00+4ссз34570 0.0 1033207
11:00+8сз33440 0.0 1033921
14:00+11с22360 0.0 10321257
17:00+12сз01335 0.0 10321367
20:00+10юв114360 0.0 103311
22 апреля, чт
чт2223:00+7ююв33505 0.0 103434
02:00+6ю335799 0.0 103437
05:00+4ююз345872 0.0 103560
08:00+6ююз3655100 0.0 1036209
11:00+11ю6838100 0.0 10361017
14:00+12ююз7934100 0.0 10351496
17:00+13ю6933100 0.0 10341753
20:00+10ю4845100 0.0 1034220
23 апреля, пт
пт2323:00+8ю4954100 0.0 1034215
02:00+8ю41157100 0.0 1034318
05:00+8ююз4959100 0.0 1034259
08:00+8ю3965100 0.0 1034586
11:00+11ю6952100 0.0 10331493
14:00+11ю7957100 0.1 10321558
17:00+14ююз4644100 0.3 10311906
20:00+11юв2256100 0.0 103111
24 апреля, сб
сб2423:00+10юв3562100 0.0 102981
02:00+10ю51056100 0.0 1029314
05:00+8зюз1171100 0.1 102821
08:00+9всв4661100 0.0 1026393
11:00+12ю71044100 0.0 10251758
14:00+10юв7948100 0.0 10231176
17:00+12ююв81033100 0.0 10212182
20:00+7ююв71168100 0.1 1022998
25 апреля, вс
вс2523:00+6вюв6156750 0.2 1018594
02:00+7юв71455100 0.0 1015595
05:00+7юв61152100 0.4 1013491
08:00+6ююв4980100 0.2 1012483
11:00+7юз5991100 1.1 1012508
14:00+10з696682 0.1 10141214
17:00+13зюз5955100 0.1 10131621
20:00+9зюз612736 0.4 1015492